Time,TemperatureF,DewpointF,PressureIn,WindDirection,WindDirectionDegrees,WindSpeedMPH,WindSpeedGustMPH,Humidity,HourlyPrecipIn,Conditions,Clouds,dailyrainin,SoftwareType,DateUTC
2013-02-20 00:00:00,28.0,20.8,30.08,NW,325,0.0,0.0,74,0.00,,OVC055,0.00,VWS V14.01,2013-02-20 05:00:00,
2013-02-20 00:05:00,28.1,18.9,30.09,NW,325,1.0,2.0,68,0.00,,OVC055,0.00,VWS V14.01,2013-02-20 05:05:00,
2013-02-20 00:10:00,28.4,20.5,30.09,NW,325,0.0,2.0,72,0.00,,OVC055,0.00,VWS V14.01,2013-02-20 05:10:00,
2013-02-20 00:15:00,28.2,20.4,30.09,NW,325,0.0,2.0,72,0.00,,OVC055,0.00,VWS V14.01,2013-02-20 05:15:00,
2013-02-20 00:20:00,27.9,19.7,30.09,NW,325,0.0,2.0,71,0.00,,OVC055,0.00,VWS V14.01,2013-02-20 05:20:00,
2013-02-20 00:25:00,27.6,20.4,30.09,NW,325,0.0,2.0,74,0.00,,OVC055,0.00,VWS V14.01,2013-02-20 05:25:00,
2013-02-20 00:30:00,27.5,19.4,30.09,NW,325,0.0,0.0,71,0.00,,OVC055,0.00,VWS V14.01,2013-02-20 05:30:00,
2013-02-20 00:35:00,27.5,19.4,30.09,NW,325,0.0,0.0,71,0.00,,OVC055,0.00,VWS V14.01,2013-02-20 05:35:00,
2013-02-20 00:40:00,27.4,19.2,30.09,NW,325,0.0,1.0,71,0.00,,OVC055,0.00,VWS V14.01,2013-02-20 05:40:00,
2013-02-20 00:45:00,27.4,18.9,30.09,NW,325,0.0,1.0,70,0.00,,OVC055,0.00,VWS V14.01,2013-02-20 05:45:00,
2013-02-20 00:50:00,27.3,20.1,30.10,NW,325,0.0,2.0,74,0.00,,OVC055,0.00,VWS V14.01,2013-02-20 05:50:00,
2013-02-20 00:55:00,27.0,19.8,30.10,NW,325,1.0,2.0,74,0.00,,OVC055,0.00,VWS V14.01,2013-02-20 05:55:00,
2013-02-20 01:00:00,26.9,18.8,30.09,NW,325,1.0,1.0,71,0.00,,OVC055,0.00,VWS V14.01,2013-02-20 06:00:00,
2013-02-20 01:05:00,26.9,19.4,30.09,NW,325,0.0,1.0,73,0.00,,OVC055,0.00,VWS V14.01,2013-02-20 06:05:00,
2013-02-20 01:10:00,26.9,18.1,30.09,NW,325,0.0,1.0,69,0.00,,OVC055,0.00,VWS V14.01,2013-02-20 06:10:00,
2013-02-20 01:15:00,26.9,19.7,30.09,NW,325,0.0,2.0,74,0.00,,OVC055,0.00,VWS V14.01,2013-02-20 06:15:00,
2013-02-20 01:20:00,26.6,19.4,30.09,NW,325,1.0,2.0,74,0.00,,OVC055,0.00,VWS V14.01,2013-02-20 06:20:00,
2013-02-20 01:25:00,26.6,18.1,30.08,NW,325,0.0,2.0,70,0.00,,OVC055,0.00,VWS V14.01,2013-02-20 06:25:00,
2013-02-20 01:30:00,26.7,18.6,30.09,NW,325,0.0,0.0,71,0.00,,OVC055,0.00,VWS V14.01,2013-02-20 06:30:00,
2013-02-20 01:35:00,26.6,19.4,30.09,NW,325,1.0,1.0,74,0.00,,OVC055,0.00,VWS V14.01,2013-02-20 06:35:00,
2013-02-20 01:40:00,26.3,18.5,30.08,NW,325,0.0,1.0,72,0.00,,OVC055,0.00,VWS V14.01,2013-02-20 06:40:00,
2013-02-20 01:45:00,26.4,17.6,30.08,NW,325,0.0,1.0,69,0.00,,OVC055,0.00,VWS V14.01,2013-02-20 06:45:00,
2013-02-20 01:50:00,26.4,18.3,30.08,NW,325,0.0,1.0,71,0.00,,OVC055,0.00,VWS V14.01,2013-02-20 06:50:00,
2013-02-20 01:55:00,26.1,19.6,30.08,NW,325,0.0,2.0,76,0.00,,OVC055,0.00,VWS V14.01,2013-02-20 06:55:00,
2013-02-20 02:00:00,25.8,18.7,30.08,NW,325,0.0,0.0,74,0.00,,OVC055,0.00,VWS V14.01,2013-02-20 07:00:00,
2013-02-20 02:05:00,26.0,17.9,30.08,NW,325,0.0,1.0,71,0.00,,OVC055,0.00,VWS V14.01,2013-02-20 07:05:00,
2013-02-20 02:10:00,26.2,18.4,30.09,NW,325,0.0,1.0,72,0.00,,OVC055,0.00,VWS V14.01,2013-02-20 07:10:00,
2013-02-20 02:15:00,26.0,18.9,30.09,NW,325,0.0,1.0,74,0.00,,OVC055,0.00,VWS V14.01,2013-02-20 07:15:00,
2013-02-20 02:20:00,25.7,19.2,30.09,NW,326,0.0,2.0,76,0.00,,OVC055,0.00,VWS V14.01,2013-02-20 07:20:00,
2013-02-20 02:25:00,25.0,19.4,30.09,NW,326,0.0,2.0,79,0.00,,OVC055,0.00,VWS V14.01,2013-02-20 07:25:00,
2013-02-20 02:30:00,24.8,18.6,30.09,NW,326,1.0,1.0,77,0.00,,OVC055,0.00,VWS V14.01,2013-02-20 07:30:00,
2013-02-20 02:35:00,25.1,19.2,30.09,NW,326,0.0,2.0,78,0.00,,OVC055,0.00,VWS V14.01,2013-02-20 07:35:00,
2013-02-20 02:40:00,25.1,19.5,30.09,NW,326,0.0,2.0,79,0.00,,OVC055,0.00,VWS V14.01,2013-02-20 07:40:00,
2013-02-20 02:45:00,24.8,19.5,30.09,NW,326,0.0,2.0,80,0.00,,OVC055,0.00,VWS V14.01,2013-02-20 07:45:00,
2013-02-20 02:50:00,24.6,19.6,30.09,NW,326,0.0,2.0,81,0.00,,OVC055,0.00,VWS V14.01,2013-02-20 07:50:00,
2013-02-20 02:55:00,24.4,19.4,30.09,NW,326,0.0,2.0,81,0.00,,OVC055,0.00,VWS V14.01,2013-02-20 07:55:00,
2013-02-20 03:00:00,24.2,19.2,30.08,NW,326,1.0,1.0,81,0.00,,OVC055,0.00,VWS V14.01,2013-02-20 08:00:00,
2013-02-20 03:05:00,24.2,18.9,30.09,NW,326,0.0,1.0,80,0.00,,OVC055,0.00,VWS V14.01,2013-02-20 08:05:00,
2013-02-20 03:10:00,24.2,18.9,30.09,NW,326,0.0,1.0,80,0.00,,OVC055,0.00,VWS V14.01,2013-02-20 08:10:00,
2013-02-20 03:15:00,24.0,19.0,30.09,NW,326,0.0,1.0,81,0.00,,OVC055,0.00,VWS V14.01,2013-02-20 08:15:00,
2013-02-20 03:20:00,23.9,18.9,30.09,NW,326,0.0,1.0,81,0.00,,OVC055,0.00,VWS V14.01,2013-02-20 08:20:00,
2013-02-20 03:25:00,23.9,18.6,30.09,NW,326,1.0,1.0,80,0.00,,OVC055,0.00,VWS V14.01,2013-02-20 08:25:00,
2013-02-20 03:30:00,23.6,18.9,30.09,NW,326,1.0,1.0,82,0.00,,OVC055,0.00,VWS V14.01,2013-02-20 08:30:00,
2013-02-20 03:35:00,23.6,18.6,30.09,NW,326,0.0,1.0,81,0.00,,OVC055,0.00,VWS V14.01,2013-02-20 08:35:00,
2013-02-20 03:40:00,23.6,18.4,30.09,NW,326,0.0,1.0,80,0.00,,OVC055,0.00,VWS V14.01,2013-02-20 08:40:00,
2013-02-20 03:45:00,23.6,18.6,30.09,NW,326,0.0,1.0,81,0.00,,OVC055,0.00,VWS V14.01,2013-02-20 08:45:00,
2013-02-20 03:50:00,23.3,18.6,30.09,NW,326,1.0,2.0,82,0.00,,OVC055,0.00,VWS V14.01,2013-02-20 08:50:00,
2013-02-20 03:55:00,23.3,18.6,30.09,NW,326,1.0,2.0,82,0.00,,OVC055,0.00,VWS V14.01,2013-02-20 08:55:00,
2013-02-20 04:00:00,23.4,18.7,30.09,NW,326,0.0,1.0,82,0.00,,OVC055,0.00,VWS V14.01,2013-02-20 09:00:00,
2013-02-20 04:05:00,23.3,18.9,30.09,North,351,0.0,3.0,83,0.00,,OVC055,0.00,VWS V14.01,2013-02-20 09:05:00,
2013-02-20 04:10:00,22.9,18.2,30.09,North,351,0.0,3.0,82,0.00,,OVC055,0.00,VWS V14.01,2013-02-20 09:10:00,
2013-02-20 04:15:00,22.8,18.7,30.09,North,351,0.0,3.0,84,0.00,,OVC055,0.00,VWS V14.01,2013-02-20 09:15:00,
2013-02-20 04:20:00,22.7,18.6,30.09,North,351,0.0,3.0,84,0.00,,OVC055,0.00,VWS V14.01,2013-02-20 09:20:00,
2013-02-20 04:25:00,22.6,18.2,30.09,North,351,0.0,3.0,83,0.00,,OVC055,0.00,VWS V14.01,2013-02-20 09:25:00,
2013-02-20 04:30:00,22.7,18.0,30.09,North,351,0.0,0.0,82,0.00,,OVC055,0.00,VWS V14.01,2013-02-20 09:30:00,
2013-02-20 04:35:00,22.7,18.0,30.09,North,351,0.0,0.0,82,0.00,,OVC055,0.00,VWS V14.01,2013-02-20 09:35:00,
2013-02-20 04:40:00,22.7,18.0,30.09,North,351,0.0,0.0,82,0.00,,OVC055,0.00,VWS V14.01,2013-02-20 09:40:00,
2013-02-20 04:45:00,22.6,17.7,30.09,North,351,0.0,1.0,81,0.00,,OVC055,0.00,VWS V14.01,2013-02-20 09:45:00,
2013-02-20 04:50:00,22.7,18.3,30.09,North,351,1.0,1.0,83,0.00,,OVC055,0.00,VWS V14.01,2013-02-20 09:50:00,
2013-02-20 04:55:00,22.6,18.2,30.09,North,351,0.0,1.0,83,0.00,,OVC055,0.00,VWS V14.01,2013-02-20 09:55:00,
2013-02-20 05:00:00,22.4,18.6,30.09,North,351,0.0,0.0,85,0.00,,OVC055,0.00,VWS V14.01,2013-02-20 10:00:00,
2013-02-20 05:05:00,22.2,18.1,30.09,North,351,0.0,0.0,84,0.00,,OVC055,0.00,VWS V14.01,2013-02-20 10:05:00,
2013-02-20 05:10:00,22.1,17.7,30.09,North,351,0.0,0.0,83,0.00,,OVC055,0.00,VWS V14.01,2013-02-20 10:10:00,
2013-02-20 05:15:00,22.1,18.3,30.09,North,351,0.0,1.0,85,0.00,,OVC055,0.00,VWS V14.01,2013-02-20 10:15:00,
2013-02-20 05:20:00,21.9,18.1,30.10,North,351,1.0,1.0,85,0.00,,OVC055,0.00,VWS V14.01,2013-02-20 10:20:00,
2013-02-20 05:25:00,21.9,17.8,30.10,North,351,0.0,1.0,84,0.00,,OVC055,0.00,VWS V14.01,2013-02-20 10:25:00,
2013-02-20 05:30:00,21.8,17.7,30.10,North,351,0.0,0.0,84,0.00,,OVC055,0.00,VWS V14.01,2013-02-20 10:30:00,
2013-02-20 05:35:00,21.7,17.9,30.11,North,351,0.0,0.0,85,0.00,,OVC055,0.00,VWS V14.01,2013-02-20 10:35:00,
2013-02-20 05:40:00,21.5,17.7,30.10,North,351,0.0,0.0,85,0.00,,OVC055,0.00,VWS V14.01,2013-02-20 10:40:00,
2013-02-20 05:45:00,21.4,17.9,30.10,North,351,1.0,1.0,86,0.00,,OVC055,0.00,VWS V14.01,2013-02-20 10:45:00,
2013-02-20 05:50:00,21.3,17.5,30.11,North,351,0.0,2.0,85,0.00,,OVC055,0.00,VWS V14.01,2013-02-20 10:50:00,
2013-02-20 05:55:00,21.2,17.7,30.11,North,351,0.0,2.0,86,0.00,,OVC055,0.00,VWS V14.01,2013-02-20 10:55:00,
2013-02-20 06:00:00,21.3,17.5,30.11,North,351,0.0,0.0,85,0.00,,OVC055,0.00,VWS V14.01,2013-02-20 11:00:00,
2013-02-20 06:05:00,21.4,17.9,30.11,North,351,0.0,1.0,86,0.00,,OVC055,0.00,VWS V14.01,2013-02-20 11:05:00,
2013-02-20 06:10:00,21.3,18.0,30.11,North,351,1.0,1.0,87,0.00,,OVC055,0.00,VWS V14.01,2013-02-20 11:10:00,
2013-02-20 06:15:00,21.2,17.4,30.11,North,351,0.0,1.0,85,0.00,,OVC055,0.00,VWS V14.01,2013-02-20 11:15:00,
2013-02-20 06:20:00,21.3,17.2,30.11,North,351,1.0,1.0,84,0.00,,OVC055,0.00,VWS V14.01,2013-02-20 11:20:00,
2013-02-20 06:25:00,21.3,17.2,30.12,North,351,0.0,1.0,84,0.00,,OVC055,0.00,VWS V14.01,2013-02-20 11:25:00,
2013-02-20 06:30:00,21.3,17.2,30.12,North,351,0.0,0.0,84,0.00,,OVC055,0.00,VWS V14.01,2013-02-20 11:30:00,
2013-02-20 06:35:00,21.2,17.1,30.12,North,351,0.0,0.0,84,0.00,,OVC055,0.00,VWS V14.01,2013-02-20 11:35:00,
2013-02-20 06:40:00,21.1,17.3,30.13,North,351,0.0,1.0,85,0.00,,OVC055,0.00,VWS V14.01,2013-02-20 11:40:00,
2013-02-20 06:45:00,20.9,17.4,30.12,North,351,0.0,1.0,86,0.00,,OVC055,0.00,VWS V14.01,2013-02-20 11:45:00,
2013-02-20 06:50:00,20.8,17.3,30.13,North,351,0.0,1.0,86,0.00,,OVC055,0.00,VWS V14.01,2013-02-20 11:50:00,
2013-02-20 06:55:00,20.7,17.2,30.13,North,351,0.0,1.0,86,0.00,,OVC055,0.00,VWS V14.01,2013-02-20 11:55:00,
2013-02-20 07:00:00,20.5,17.2,30.13,North,351,1.0,1.0,87,0.00,,OVC055,0.00,VWS V14.01,2013-02-20 12:00:00,
2013-02-20 07:04:00,20.4,17.4,30.13,North,351,0.0,1.0,88,0.00,,OVC055,0.00,VWS V14.01,2013-02-20 12:04:00,
2013-02-20 07:09:00,20.3,17.3,30.13,North,351,0.0,1.0,88,0.00,,OVC055,0.00,VWS V14.01,2013-02-20 12:09:00,
2013-02-20 07:14:00,20.3,17.3,30.13,North,351,0.0,1.0,88,0.00,,OVC055,0.00,VWS V14.01,2013-02-20 12:14:00,
2013-02-20 07:19:00,20.2,17.2,30.13,North,351,0.0,1.0,88,0.00,,OVC055,0.00,VWS V14.01,2013-02-20 12:19:00,
2013-02-20 07:24:00,20.2,17.2,30.13,North,351,0.0,1.0,88,0.00,,OVC055,0.00,VWS V14.01,2013-02-20 12:24:00,
2013-02-20 07:29:00,20.2,17.2,30.13,North,351,0.0,0.0,88,0.00,,OVC055,0.00,VWS V14.01,2013-02-20 12:29:00,
2013-02-20 07:30:00,20.2,17.2,30.13,North,351,0.0,1.0,88,0.00,,OVC055,0.00,VWS V14.01,2013-02-20 12:30:00,
2013-02-20 07:34:00,20.1,17.1,30.13,North,351,0.0,1.0,88,0.00,,OVC055,0.00,VWS V14.01,2013-02-20 12:34:00,
2013-02-20 07:39:00,20.0,17.0,30.14,North,351,0.0,1.0,88,0.00,,OVC055,0.00,VWS V14.01,2013-02-20 12:39:00,
2013-02-20 07:44:00,20.1,17.1,30.14,North,351,0.0,1.0,88,0.00,,OVC055,0.00,VWS V14.01,2013-02-20 12:44:00,
2013-02-20 07:49:00,20.2,17.0,30.14,North,351,0.0,1.0,87,0.00,,OVC055,0.00,VWS V14.01,2013-02-20 12:49:00,
2013-02-20 07:54:00,20.2,17.2,30.14,North,351,0.0,1.0,88,0.00,,OVC055,0.00,VWS V14.01,2013-02-20 12:54:00,
2013-02-20 07:59:00,20.3,17.6,30.15,North,351,0.0,0.0,89,0.00,,OVC055,0.00,VWS V14.01,2013-02-20 12:59:00,
2013-02-20 08:00:00,20.3,17.6,30.15,North,351,0.0,1.0,89,0.00,,OVC055,0.00,VWS V14.01,2013-02-20 13:00:00,
2013-02-20 08:04:00,20.3,17.6,30.14,North,351,0.0,1.0,89,0.00,,OVC055,0.00,VWS V14.01,2013-02-20 13:04:00,
2013-02-20 08:09:00,20.4,17.9,30.15,North,351,0.0,1.0,90,0.00,,OVC055,0.00,VWS V14.01,2013-02-20 13:09:00,
2013-02-20 08:14:00,20.6,18.1,30.16,North,351,0.0,1.0,90,0.00,,OVC055,0.00,VWS V14.01,2013-02-20 13:14:00,
2013-02-20 08:19:00,20.6,18.1,30.16,North,351,0.0,1.0,90,0.00,,OVC055,0.00,VWS V14.01,2013-02-20 13:19:00,
2013-02-20 08:24:00,20.7,18.0,30.16,North,351,0.0,1.0,89,0.00,,OVC055,0.00,VWS V14.01,2013-02-20 13:24:00,
2013-02-20 08:29:00,20.9,18.2,30.16,North,351,0.0,0.0,89,0.00,,OVC055,0.00,VWS V14.01,2013-02-20 13:29:00,
2013-02-20 08:30:00,20.9,18.2,30.16,North,351,0.0,1.0,89,0.00,,OVC055,0.00,VWS V14.01,2013-02-20 13:30:00,
2013-02-20 08:34:00,21.2,18.2,30.16,North,351,0.0,0.0,88,0.00,,OVC055,0.00,VWS V14.01,2013-02-20 13:34:00,
2013-02-20 08:39:00,21.7,18.7,30.17,North,351,0.0,1.0,88,0.00,,OVC055,0.00,VWS V14.01,2013-02-20 13:39:00,
2013-02-20 08:44:00,22.2,19.7,30.17,North,351,0.0,1.0,90,0.00,,OVC055,0.00,VWS V14.01,2013-02-20 13:44:00,
2013-02-20 08:49:00,22.8,20.3,30.17,North,351,0.0,1.0,90,0.00,,OVC055,0.00,VWS V14.01,2013-02-20 13:49:00,
2013-02-20 08:54:00,23.4,20.6,30.17,North,351,0.0,1.0,89,0.00,,OVC055,0.00,VWS V14.01,2013-02-20 13:54:00,
2013-02-20 08:59:00,23.9,21.1,30.17,North,351,0.0,0.0,89,0.00,,OVC055,0.00,VWS V14.01,2013-02-20 13:59:00,
2013-02-20 09:00:00,23.9,21.1,30.17,North,351,0.0,1.0,89,0.00,,OVC055,0.00,VWS V14.01,2013-02-20 14:00:00,
2013-02-20 09:04:00,24.6,21.6,30.18,North,351,0.0,1.0,88,0.00,,OVC055,0.00,VWS V14.01,2013-02-20 14:04:00,
2013-02-20 09:09:00,25.4,22.1,30.18,North,351,1.0,1.0,87,0.00,,OVC055,0.00,VWS V14.01,2013-02-20 14:09:00,
2013-02-20 09:14:00,26.3,22.4,30.18,North,351,0.0,1.0,85,0.00,,OVC055,0.00,VWS V14.01,2013-02-20 14:14:00,
2013-02-20 09:19:00,27.5,23.0,30.18,North,351,1.0,1.0,83,0.00,,OVC055,0.00,VWS V14.01,2013-02-20 14:19:00,
2013-02-20 09:24:00,28.6,22.9,30.18,North,351,0.0,2.0,79,0.00,,OVC055,0.00,VWS V14.01,2013-02-20 14:24:00,
2013-02-20 09:29:00,29.6,23.0,30.17,North,351,0.0,0.0,76,0.00,,OVC055,0.00,VWS V14.01,2013-02-20 14:29:00,
2013-02-20 09:30:00,29.5,22.9,30.17,North,351,0.0,2.0,76,0.00,,OVC055,0.00,VWS V14.01,2013-02-20 14:30:00,
2013-02-20 09:34:00,30.5,19.4,30.18,North,351,0.0,2.0,63,0.00,,OVC055,0.00,VWS V14.01,2013-02-20 14:34:00,
2013-02-20 09:39:00,31.6,20.1,30.18,North,351,1.0,2.0,62,0.00,,OVC055,0.00,VWS V14.01,2013-02-20 14:39:00,
2013-02-20 09:44:00,32.6,19.1,30.18,North,351,1.0,2.0,57,0.00,,OVC055,0.00,VWS V14.01,2013-02-20 14:44:00,
2013-02-20 09:49:00,33.3,20.5,30.18,North,351,0.0,2.0,59,0.00,,OVC055,0.00,VWS V14.01,2013-02-20 14:49:00,
2013-02-20 09:54:00,34.1,19.2,30.18,North,351,2.0,2.0,54,0.00,,OVC055,0.00,VWS V14.01,2013-02-20 14:54:00,
2013-02-20 09:59:00,35.0,18.7,30.18,North,351,1.0,2.0,51,0.00,,OVC055,0.00,VWS V14.01,2013-02-20 14:59:00,
2013-02-20 10:00:00,35.0,18.7,30.18,North,351,1.0,2.0,51,0.00,,OVC055,0.00,VWS V14.01,2013-02-20 15:00:00,
2013-02-20 10:04:00,35.5,18.7,30.18,North,351,1.0,2.0,50,0.00,,OVC055,0.00,VWS V14.01,2013-02-20 15:04:00,
2013-02-20 10:09:00,36.1,19.7,30.18,North,351,1.0,2.0,51,0.00,,OVC055,0.00,VWS V14.01,2013-02-20 15:09:00,
2013-02-20 10:14:00,37.1,18.8,30.18,North,351,0.0,2.0,47,0.00,,OVC055,0.00,VWS V14.01,2013-02-20 15:14:00,
2013-02-20 10:19:00,37.7,17.8,30.18,North,351,0.0,3.0,44,0.00,,OVC055,0.00,VWS V14.01,2013-02-20 15:19:00,
2013-02-20 10:24:00,38.2,15.4,30.18,North,5,0.0,3.0,39,0.00,,OVC055,0.00,VWS V14.01,2013-02-20 15:24:00,
2013-02-20 10:29:00,38.6,15.8,30.18,North,5,0.0,3.0,39,0.00,,OVC055,0.00,VWS V14.01,2013-02-20 15:29:00,
2013-02-20 10:30:00,38.6,15.8,30.18,North,5,0.0,3.0,39,0.00,,OVC055,0.00,VWS V14.01,2013-02-20 15:30:00,
2013-02-20 10:34:00,39.2,15.7,30.18,North,5,2.0,3.0,38,0.00,,OVC055,0.00,VWS V14.01,2013-02-20 15:34:00,
2013-02-20 10:39:00,39.3,15.8,30.18,ENE,63,1.0,3.0,38,0.00,,OVC055,0.00,VWS V14.01,2013-02-20 15:39:00,
2013-02-20 10:44:00,39.9,18.1,30.18,NE,42,1.0,3.0,41,0.00,,OVC055,0.00,VWS V14.01,2013-02-20 15:44:00,
2013-02-20 10:49:00,40.7,17.7,30.18,NE,42,0.0,3.0,39,0.00,,OVC055,0.00,VWS V14.01,2013-02-20 15:49:00,
2013-02-20 10:54:00,40.8,13.9,30.18,ESE,109,2.0,7.0,33,0.00,,OVC055,0.00,VWS V14.01,2013-02-20 15:54:00,
2013-02-20 10:59:00,40.5,15.0,30.18,ENE,74,1.0,7.0,35,0.00,,OVC055,0.00,VWS V14.01,2013-02-20 15:59:00,
2013-02-20 11:00:00,40.5,15.0,30.18,ENE,74,0.0,7.0,35,0.00,,OVC055,0.00,VWS V14.01,2013-02-20 16:00:00,
2013-02-20 11:04:00,40.9,13.3,30.18,NE,37,1.0,2.0,32,0.00,,OVC055,0.00,VWS V14.01,2013-02-20 16:04:00,
2013-02-20 11:09:00,41.2,12.1,30.17,SW,230,1.0,4.0,30,0.00,,OVC055,0.00,VWS V14.01,2013-02-20 16:09:00,
2013-02-20 11:14:00,41.9,17.5,30.17,NNW,327,1.0,4.0,37,0.00,,OVC055,0.00,VWS V14.01,2013-02-20 16:14:00,
2013-02-20 11:19:00,42.1,12.9,30.17,NE,42,0.0,5.0,30,0.00,,OVC055,0.00,VWS V14.01,2013-02-20 16:19:00,
2013-02-20 11:24:00,42.4,14.6,30.17,ENE,65,0.0,5.0,32,0.00,,OVC055,0.00,VWS V14.01,2013-02-20 16:24:00,
2013-02-20 11:29:00,42.9,12.9,30.17,West,266,2.0,5.0,29,0.00,,OVC055,0.00,VWS V14.01,2013-02-20 16:29:00,
2013-02-20 11:30:00,42.9,12.9,30.17,WSW,251,1.0,5.0,29,0.00,,OVC055,0.00,VWS V14.01,2013-02-20 16:30:00,
2013-02-20 11:34:00,43.4,15.5,30.16,West,280,0.0,2.0,32,0.00,,OVC055,0.00,VWS V14.01,2013-02-20 16:34:00,
2013-02-20 11:39:00,44.5,17.2,30.16,North,355,3.0,3.0,33,0.00,,OVC055,0.00,VWS V14.01,2013-02-20 16:39:00,
2013-02-20 11:44:00,44.7,17.4,30.15,East,88,3.0,3.0,33,0.00,,OVC055,0.00,VWS V14.01,2013-02-20 16:44:00,
2013-02-20 11:49:00,45.2,14.1,30.15,NW,322,2.0,4.0,28,0.00,,OVC055,0.00,VWS V14.01,2013-02-20 16:49:00,
2013-02-20 11:54:00,45.8,14.6,30.16,NNW,329,1.0,4.0,28,0.00,,OVC055,0.00,VWS V14.01,2013-02-20 16:54:00,
2013-02-20 11:59:00,45.9,13.8,30.16,NE,46,3.0,4.0,27,0.00,,OVC055,0.00,VWS V14.01,2013-02-20 16:59:00,
2013-02-20 12:00:00,45.9,13.8,30.16,NE,46,2.0,4.0,27,0.00,,OVC055,0.00,VWS V14.01,2013-02-20 17:00:00,
2013-02-20 12:04:00,45.1,14.0,30.15,NNE,25,3.0,5.0,28,0.00,,OVC055,0.00,VWS V14.01,2013-02-20 17:04:00,
2013-02-20 12:09:00,45.0,15.4,30.15,ENE,59,3.0,5.0,30,0.00,,OVC055,0.00,VWS V14.01,2013-02-20 17:09:00,
2013-02-20 12:14:00,45.6,16.0,30.15,NNE,28,1.0,5.0,30,0.00,,OVC055,0.00,VWS V14.01,2013-02-20 17:14:00,
2013-02-20 12:19:00,46.4,18.2,30.14,SE,135,0.0,5.0,32,0.00,,OVC055,0.00,VWS V14.01,2013-02-20 17:19:00,
2013-02-20 12:24:00,46.6,15.3,30.14,NE,39,3.0,5.0,28,0.00,,OVC055,0.00,VWS V14.01,2013-02-20 17:24:00,
2013-02-20 12:29:00,46.5,15.2,30.14,ENE,57,2.0,5.0,28,0.00,,OVC055,0.00,VWS V14.01,2013-02-20 17:29:00,
2013-02-20 12:30:00,46.5,15.2,30.14,ENE,57,2.0,5.0,28,0.00,,OVC055,0.00,VWS V14.01,2013-02-20 17:30:00,
2013-02-20 12:34:00,46.5,14.3,30.14,NE,50,4.0,5.0,27,0.00,,OVC055,0.00,VWS V14.01,2013-02-20 17:34:00,
2013-02-20 12:39:00,46.5,13.5,30.14,NE,40,0.0,5.0,26,0.00,,OVC055,0.00,VWS V14.01,2013-02-20 17:39:00,
2013-02-20 12:44:00,46.8,14.6,30.14,NE,43,2.0,5.0,27,0.00,,OVC055,0.00,VWS V14.01,2013-02-20 17:44:00,
2013-02-20 12:49:00,47.2,13.2,30.14,NE,42,3.0,5.0,25,0.00,,OVC055,0.00,VWS V14.01,2013-02-20 17:49:00,
2013-02-20 12:54:00,47.3,15.0,30.13,NE,42,1.0,5.0,27,0.00,,OVC055,0.00,VWS V14.01,2013-02-20 17:54:00,
2013-02-20 12:59:00,47.3,13.3,30.13,NE,42,2.0,5.0,25,0.00,,OVC055,0.00,VWS V14.01,2013-02-20 17:59:00,
2013-02-20 13:00:00,47.3,13.3,30.13,NE,42,2.0,5.0,25,0.00,,OVC055,0.00,VWS V14.01,2013-02-20 18:00:00,
2013-02-20 13:04:00,47.5,13.4,30.13,NE,42,2.0,3.0,25,0.00,,OVC055,0.00,VWS V14.01,2013-02-20 18:04:00,
2013-02-20 13:09:00,47.7,13.6,30.12,NE,41,3.0,4.0,25,0.00,,OVC055,0.00,VWS V14.01,2013-02-20 18:09:00,
2013-02-20 13:14:00,47.9,13.8,30.12,NE,41,0.0,4.0,25,0.00,,OVC055,0.00,VWS V14.01,2013-02-20 18:14:00,
2013-02-20 13:19:00,48.2,14.0,30.12,NE,41,2.0,4.0,25,0.00,,OVC055,0.00,VWS V14.01,2013-02-20 18:19:00,
2013-02-20 13:24:00,48.3,13.2,30.12,NE,41,3.0,4.0,24,0.00,,OVC055,0.00,VWS V14.01,2013-02-20 18:24:00,
2013-02-20 13:29:00,48.3,12.2,30.12,NE,41,0.0,4.0,23,0.00,,OVC055,0.00,VWS V14.01,2013-02-20 18:29:00,
2013-02-20 13:30:00,48.3,12.2,30.12,NE,41,0.0,4.0,23,0.00,,OVC055,0.00,VWS V14.01,2013-02-20 18:30:00,
2013-02-20 13:34:00,48.5,16.1,30.11,NE,40,4.0,4.0,27,0.00,,OVC055,0.00,VWS V14.01,2013-02-20 18:34:00,
2013-02-20 13:39:00,48.6,13.5,30.11,NE,40,2.0,4.0,24,0.00,,OVC055,0.00,VWS V14.01,2013-02-20 18:39:00,
2013-02-20 13:44:00,48.6,12.5,30.11,NE,40,3.0,4.0,23,0.00,,OVC055,0.00,VWS V14.01,2013-02-20 18:44:00,
2013-02-20 13:48:00,48.7,14.5,30.11,NE,43,1.0,5.0,25,0.00,,OVC055,0.00,VWS V14.01,2013-02-20 18:48:00,
2013-02-20 13:53:00,48.7,15.4,30.11,NE,43,2.0,5.0,26,0.00,,OVC055,0.00,VWS V14.01,2013-02-20 18:53:00,
2013-02-20 13:58:00,48.8,17.2,30.11,NNE,29,5.0,5.0,28,0.00,,OVC055,0.00,VWS V14.01,2013-02-20 18:58:00,
2013-02-20 14:00:00,48.8,15.4,30.11,NNE,25,4.0,5.0,26,0.00,,OVC055,0.00,VWS V14.01,2013-02-20 19:00:00,
2013-02-20 14:03:00,48.7,17.1,30.11,NNE,26,2.0,5.0,28,0.00,,OVC055,0.00,VWS V14.01,2013-02-20 19:03:00,
2013-02-20 14:08:00,48.9,18.9,30.11,NNE,24,4.0,6.0,30,0.00,,OVC055,0.00,VWS V14.01,2013-02-20 19:08:00,
2013-02-20 14:13:00,49.0,16.5,30.11,NNE,25,3.0,6.0,27,0.00,,OVC055,0.00,VWS V14.01,2013-02-20 19:13:00,
2013-02-20 14:18:00,49.2,17.5,30.10,NNE,24,2.0,6.0,28,0.00,,OVC055,0.00,VWS V14.01,2013-02-20 19:18:00,
2013-02-20 14:23:00,49.4,20.0,30.11,NNE,26,3.0,6.0,31,0.00,,OVC055,0.00,VWS V14.01,2013-02-20 19:23:00,
2013-02-20 14:28:00,49.2,18.3,30.11,NNE,14,6.0,7.0,29,0.00,,OVC055,0.00,VWS V14.01,2013-02-20 19:28:00,
2013-02-20 14:30:00,49.1,19.0,30.11,NNE,19,4.0,7.0,30,0.00,,OVC055,0.00,VWS V14.01,2013-02-20 19:30:00,
2013-02-20 14:33:00,48.8,18.8,30.10,North,11,3.0,6.0,30,0.00,,OVC055,0.00,VWS V14.01,2013-02-20 19:33:00,
2013-02-20 14:38:00,48.9,19.6,30.10,NNE,30,4.0,6.0,31,0.00,,OVC055,0.00,VWS V14.01,2013-02-20 19:38:00,
2013-02-20 14:43:00,48.9,17.2,30.11,NNE,22,7.0,8.0,28,0.00,,OVC055,0.00,VWS V14.01,2013-02-20 19:43:00,
2013-02-20 14:48:00,48.6,18.6,30.11,NNE,18,3.0,8.0,30,0.00,,OVC055,0.00,VWS V14.01,2013-02-20 19:48:00,
2013-02-20 14:53:00,48.5,18.5,30.10,NNE,30,9.0,9.0,30,0.00,,OVC055,0.00,VWS V14.01,2013-02-20 19:53:00,
2013-02-20 14:58:00,48.3,19.1,30.10,North,349,4.0,9.0,31,0.00,,OVC055,0.00,VWS V14.01,2013-02-20 19:58:00,
2013-02-20 15:00:00,48.3,18.3,30.10,North,355,6.0,9.0,30,0.00,,OVC055,0.00,VWS V14.01,2013-02-20 20:00:00,
2013-02-20 15:03:00,48.4,19.9,30.11,NNE,22,5.0,7.0,32,0.00,,OVC055,0.00,VWS V14.01,2013-02-20 20:03:00,
2013-02-20 15:08:00,48.3,17.5,30.11,NNE,33,4.0,8.0,29,0.00,,OVC055,0.00,VWS V14.01,2013-02-20 20:08:00,
2013-02-20 15:13:00,48.3,19.1,30.11,NE,34,6.0,8.0,31,0.00,,OVC055,0.00,VWS V14.01,2013-02-20 20:13:00,
2013-02-20 15:18:00,48.1,18.9,30.11,NNE,21,4.0,8.0,31,0.00,,OVC055,0.00,VWS V14.01,2013-02-20 20:18:00,
2013-02-20 15:23:00,48.2,18.2,30.11,NNE,13,6.0,8.0,30,0.00,,OVC055,0.00,VWS V14.01,2013-02-20 20:23:00,
2013-02-20 15:28:00,48.1,19.6,30.11,North,5,5.0,8.0,32,0.00,,OVC055,0.00,VWS V14.01,2013-02-20 20:28:00,
2013-02-20 15:30:00,48.2,18.2,30.11,NNE,17,5.0,8.0,30,0.00,,OVC055,0.00,VWS V14.01,2013-02-20 20:30:00,
2013-02-20 15:33:00,48.1,18.9,30.11,NNE,25,5.0,6.0,31,0.00,,OVC055,0.00,VWS V14.01,2013-02-20 20:33:00,
2013-02-20 15:38:00,48.2,19.7,30.11,NNE,19,5.0,6.0,32,0.00,,OVC055,0.00,VWS V14.01,2013-02-20 20:38:00,
2013-02-20 15:43:00,48.1,18.1,30.12,North,10,4.0,6.0,30,0.00,,OVC055,0.00,VWS V14.01,2013-02-20 20:43:00,
2013-02-20 15:48:00,47.9,18.0,30.12,NE,35,3.0,6.0,30,0.00,,OVC055,0.00,VWS V14.01,2013-02-20 20:48:00,
2013-02-20 15:53:00,47.6,16.9,30.12,North,11,4.0,7.0,29,0.00,,OVC055,0.00,VWS V14.01,2013-02-20 20:53:00,
2013-02-20 15:58:00,47.4,17.5,30.12,NNE,32,6.0,9.0,30,0.00,,OVC055,0.00,VWS V14.01,2013-02-20 20:58:00,
2013-02-20 16:00:00,47.4,17.5,30.12,NE,34,5.0,9.0,30,0.00,,OVC055,0.00,VWS V14.01,2013-02-20 21:00:00,
2013-02-20 16:03:00,47.2,15.8,30.12,North,5,5.0,7.0,28,0.00,,OVC055,0.00,VWS V14.01,2013-02-20 21:03:00,
2013-02-20 16:08:00,47.0,18.7,30.12,NNE,15,4.0,8.0,32,0.00,,OVC055,0.00,VWS V14.01,2013-02-20 21:08:00,
2013-02-20 16:13:00,46.9,17.1,30.12,NNE,13,3.0,8.0,30,0.00,,OVC055,0.00,VWS V14.01,2013-02-20 21:13:00,
2013-02-20 16:18:00,46.8,16.2,30.12,NNE,13,4.0,8.0,29,0.00,,OVC055,0.00,VWS V14.01,2013-02-20 21:18:00,
2013-02-20 16:23:00,46.7,16.9,30.13,NE,34,4.0,8.0,30,0.00,,OVC055,0.00,VWS V14.01,2013-02-20 21:23:00,
2013-02-20 16:28:00,46.7,16.1,30.13,NNW,334,3.0,8.0,29,0.00,,OVC055,0.00,VWS V14.01,2013-02-20 21:28:00,
2013-02-20 16:30:00,46.7,16.1,30.13,NNE,17,6.0,8.0,29,0.00,,OVC055,0.00,VWS V14.01,2013-02-20 21:30:00,
2013-02-20 16:33:00,46.6,15.3,30.13,North,360,2.0,6.0,28,0.00,,OVC055,0.00,VWS V14.01,2013-02-20 21:33:00,
2013-02-20 16:38:00,46.4,16.7,30.14,NNE,23,4.0,6.0,30,0.00,,OVC055,0.00,VWS V14.01,2013-02-20 21:38:00,
2013-02-20 16:43:00,46.3,14.2,30.14,NNW,343,5.0,9.0,27,0.00,,OVC055,0.00,VWS V14.01,2013-02-20 21:43:00,
2013-02-20 16:48:00,46.1,15.6,30.14,North,10,5.0,9.0,29,0.00,,OVC055,0.00,VWS V14.01,2013-02-20 21:48:00,
2013-02-20 16:53:00,45.9,14.6,30.15,North,5,3.0,9.0,28,0.00,,OVC055,0.00,VWS V14.01,2013-02-20 21:53:00,
2013-02-20 16:58:00,45.8,15.4,30.15,NNE,12,3.0,9.0,29,0.00,,OVC055,0.00,VWS V14.01,2013-02-20 21:58:00,
2013-02-20 17:00:00,45.8,15.4,30.15,North,360,4.0,9.0,29,0.00,,OVC055,0.00,VWS V14.01,2013-02-20 22:00:00,
2013-02-20 17:03:00,45.6,15.2,30.15,North,5,2.0,5.0,29,0.00,,OVC055,0.00,VWS V14.01,2013-02-20 22:03:00,
2013-02-20 17:08:00,45.5,15.1,30.15,North,5,6.0,7.0,29,0.00,,OVC055,0.00,VWS V14.01,2013-02-20 22:08:00,
2013-02-20 17:13:00,45.3,14.9,30.15,North,360,6.0,7.0,29,0.00,,OVC055,0.00,VWS V14.01,2013-02-20 22:13:00,
2013-02-20 17:18:00,45.2,15.6,30.16,North,355,2.0,7.0,30,0.00,,OVC055,0.00,VWS V14.01,2013-02-20 22:18:00,
2013-02-20 17:23:00,45.0,14.7,30.16,NNW,342,4.0,7.0,29,0.00,,OVC055,0.00,VWS V14.01,2013-02-20 22:23:00,
2013-02-20 17:28:00,44.8,16.0,30.16,North,5,2.0,7.0,31,0.00,,OVC055,0.00,VWS V14.01,2013-02-20 22:28:00,
2013-02-20 17:30:00,44.8,14.5,30.16,NNE,30,2.0,7.0,29,0.00,,OVC055,0.00,VWS V14.01,2013-02-20 22:30:00,
2013-02-20 17:33:00,44.6,15.1,30.16,NNE,32,1.0,7.0,30,0.00,,OVC055,0.00,VWS V14.01,2013-02-20 22:33:00,
2013-02-20 17:38:00,44.5,15.8,30.17,NNE,18,3.0,7.0,31,0.00,,OVC055,0.00,VWS V14.01,2013-02-20 22:38:00,
2013-02-20 17:43:00,44.2,14.8,30.17,NNE,22,5.0,7.0,30,0.00,,OVC055,0.00,VWS V14.01,2013-02-20 22:43:00,
2013-02-20 17:48:00,44.0,15.3,30.17,NNE,32,3.0,8.0,31,0.00,,OVC055,0.00,VWS V14.01,2013-02-20 22:48:00,
2013-02-20 17:53:00,43.8,14.4,30.17,North,5,6.0,8.0,30,0.00,,OVC055,0.00,VWS V14.01,2013-02-20 22:53:00,
2013-02-20 17:58:00,43.6,15.0,30.17,North,5,5.0,9.0,31,0.00,,OVC055,0.00,VWS V14.01,2013-02-20 22:58:00,
2013-02-20 18:00:00,43.6,15.0,30.17,NNE,21,5.0,9.0,31,0.00,,OVC055,0.00,VWS V14.01,2013-02-20 23:00:00,
2013-02-20 18:03:00,43.4,14.1,30.17,North,5,2.0,7.0,30,0.00,,OVC055,0.00,VWS V14.01,2013-02-20 23:03:00,
2013-02-20 18:08:00,43.2,14.6,30.17,NE,43,5.0,7.0,31,0.00,,OVC055,0.00,VWS V14.01,2013-02-20 23:08:00,
2013-02-20 18:13:00,43.0,14.4,30.17,NNE,25,4.0,8.0,31,0.00,,OVC055,0.00,VWS V14.01,2013-02-20 23:13:00,
2013-02-20 18:18:00,42.7,15.6,30.17,NNE,13,3.0,8.0,33,0.00,,OVC055,0.00,VWS V14.01,2013-02-20 23:18:00,
2013-02-20 18:23:00,42.4,14.6,30.17,North,5,2.0,8.0,32,0.00,,OVC055,0.00,VWS V14.01,2013-02-20 23:23:00,
2013-02-20 18:28:00,42.0,15.0,30.17,NNE,33,3.0,8.0,33,0.00,,OVC055,0.00,VWS V14.01,2013-02-20 23:28:00,
2013-02-20 18:30:00,42.0,14.3,30.17,NNE,33,4.0,8.0,32,0.00,,OVC055,0.00,VWS V14.01,2013-02-20 23:30:00,
2013-02-20 18:33:00,41.9,14.2,30.17,NNE,18,3.0,6.0,32,0.00,,OVC055,0.00,VWS V14.01,2013-02-20 23:33:00,
2013-02-20 18:38:00,41.6,14.6,30.17,NE,43,3.0,7.0,33,0.00,,OVC055,0.00,VWS V14.01,2013-02-20 23:38:00,
2013-02-20 18:43:00,41.5,14.6,30.17,NNE,30,2.0,7.0,33,0.00,,OVC055,0.00,VWS V14.01,2013-02-20 23:43:00,
2013-02-20 18:48:00,41.3,14.4,30.17,NNE,16,2.0,7.0,33,0.00,,OVC055,0.00,VWS V14.01,2013-02-20 23:48:00,
2013-02-20 18:53:00,41.1,14.9,30.16,NNE,26,4.0,7.0,34,0.00,,OVC055,0.00,VWS V14.01,2013-02-20 23:53:00,
2013-02-20 18:58:00,40.9,15.4,30.17,NNE,13,3.0,7.0,35,0.00,,OVC055,0.00,VWS V14.01,2013-02-20 23:58:00,
2013-02-20 19:00:00,40.8,14.6,30.17,North,360,5.0,7.0,34,0.00,,OVC055,0.00,VWS V14.01,2013-02-21 00:00:00,
2013-02-20 19:03:00,40.7,14.5,30.17,North,5,3.0,5.0,34,0.00,,OVC055,0.00,VWS V14.01,2013-02-21 00:03:00,
2013-02-20 19:08:00,40.6,14.4,30.17,NNE,19,3.0,6.0,34,0.00,,OVC055,0.00,VWS V14.01,2013-02-21 00:08:00,
2013-02-20 19:13:00,40.4,13.6,30.17,North,9,2.0,6.0,33,0.00,,OVC055,0.00,VWS V14.01,2013-02-21 00:13:00,
2013-02-20 19:18:00,40.3,14.8,30.18,NE,34,2.0,6.0,35,0.00,,OVC055,0.00,VWS V14.01,2013-02-21 00:18:00,
2013-02-20 19:23:00,40.2,13.4,30.19,North,11,2.0,6.0,33,0.00,,OVC055,0.00,VWS V14.01,2013-02-21 00:23:00,
2013-02-20 19:28:00,40.0,14.6,30.19,NNE,22,2.0,6.0,35,0.00,,OVC055,0.00,VWS V14.01,2013-02-21 00:28:00,
2013-02-20 19:30:00,39.9,13.8,30.18,NE,35,5.0,6.0,34,0.00,,OVC055,0.00,VWS V14.01,2013-02-21 00:30:00,
2013-02-20 19:33:00,39.8,13.7,30.18,NE,38,4.0,6.0,34,0.00,,OVC055,0.00,VWS V14.01,2013-02-21 00:33:00,
2013-02-20 19:38:00,39.5,14.8,30.17,NE,36,1.0,6.0,36,0.00,,OVC055,0.00,VWS V14.01,2013-02-21 00:38:00,
2013-02-20 19:43:00,39.1,14.4,30.17,NNE,32,1.0,6.0,36,0.00,,OVC055,0.00,VWS V14.01,2013-02-21 00:43:00,
2013-02-20 19:48:00,38.9,14.2,30.17,NNE,32,0.0,6.0,36,0.00,,OVC055,0.00,VWS V14.01,2013-02-21 00:48:00,
2013-02-20 19:53:00,38.5,15.1,30.17,NNE,21,1.0,6.0,38,0.00,,OVC055,0.00,VWS V14.01,2013-02-21 00:53:00,
2013-02-20 19:58:00,38.0,14.1,30.17,NNE,22,0.0,6.0,37,0.00,,OVC055,0.00,VWS V14.01,2013-02-21 00:58:00,
2013-02-20 20:00:00,37.9,14.6,30.17,NNE,22,1.0,6.0,38,0.00,,OVC055,0.00,VWS V14.01,2013-02-21 01:00:00,
2013-02-20 20:03:00,37.6,14.3,30.17,NNE,24,3.0,4.0,38,0.00,,OVC055,0.00,VWS V14.01,2013-02-21 01:03:00,
2013-02-20 20:08:00,37.3,14.6,30.17,NNE,13,2.0,4.0,39,0.00,,OVC055,0.00,VWS V14.01,2013-02-21 01:08:00,
2013-02-20 20:13:00,37.0,14.4,30.18,North,9,3.0,7.0,39,0.00,,OVC055,0.00,VWS V14.01,2013-02-21 01:13:00,
2013-02-20 20:18:00,37.0,13.8,30.18,North,5,0.0,7.0,38,0.00,,OVC055,0.00,VWS V14.01,2013-02-21 01:18:00,
2013-02-20 20:23:00,36.8,14.8,30.18,North,5,3.0,7.0,40,0.00,,OVC055,0.00,VWS V14.01,2013-02-21 01:23:00,
2013-02-20 20:28:00,36.5,14.5,30.18,North,355,2.0,7.0,40,0.00,,OVC055,0.00,VWS V14.01,2013-02-21 01:28:00,
2013-02-20 20:30:00,36.4,15.0,30.18,North,355,3.0,7.0,41,0.00,,OVC055,0.00,VWS V14.01,2013-02-21 01:30:00,
2013-02-20 20:33:00,36.3,14.3,30.19,NNE,13,1.0,3.0,40,0.00,,OVC055,0.00,VWS V14.01,2013-02-21 01:33:00,
2013-02-20 20:38:00,36.1,14.7,30.19,North,5,2.0,5.0,41,0.00,,OVC055,0.00,VWS V14.01,2013-02-21 01:38:00,
2013-02-20 20:43:00,35.8,14.4,30.19,North,9,1.0,5.0,41,0.00,,OVC055,0.00,VWS V14.01,2013-02-21 01:43:00,
2013-02-20 20:48:00,35.5,14.7,30.19,North,5,1.0,5.0,42,0.00,,OVC055,0.00,VWS V14.01,2013-02-21 01:48:00,
2013-02-20 20:53:00,35.2,15.0,30.18,North,5,2.0,5.0,43,0.00,,OVC055,0.00,VWS V14.01,2013-02-21 01:53:00,
2013-02-20 20:58:00,35.0,15.3,30.19,NNE,24,1.0,5.0,44,0.00,,OVC055,0.00,VWS V14.01,2013-02-21 01:58:00,
2013-02-20 21:00:00,34.9,15.2,30.19,NNE,24,0.0,5.0,44,0.00,,OVC055,0.00,VWS V14.01,2013-02-21 02:00:00,
2013-02-20 21:03:00,34.7,15.0,30.19,NNE,24,0.0,3.0,44,0.00,,OVC055,0.00,VWS V14.01,2013-02-21 02:03:00,
2013-02-20 21:08:00,34.4,14.8,30.18,NNE,12,0.0,3.0,44,0.00,,OVC055,0.00,VWS V14.01,2013-02-21 02:08:00,
2013-02-20 21:13:00,34.2,14.6,30.18,North,5,1.0,3.0,44,0.00,,OVC055,0.00,VWS V14.01,2013-02-21 02:13:00,
2013-02-20 21:18:00,34.0,14.9,30.18,North,360,2.0,3.0,45,0.00,,OVC055,0.00,VWS V14.01,2013-02-21 02:18:00,
2013-02-20 21:23:00,33.9,14.8,30.18,North,355,1.0,3.0,45,0.00,,OVC055,0.00,VWS V14.01,2013-02-21 02:23:00,
2013-02-20 21:28:00,33.7,14.6,30.18,North,355,2.0,4.0,45,0.00,,OVC055,0.00,VWS V14.01,2013-02-21 02:28:00,
2013-02-20 21:30:00,33.7,14.6,30.18,North,355,1.0,4.0,45,0.00,,OVC055,0.00,VWS V14.01,2013-02-21 02:30:00,
2013-02-20 21:33:00,33.6,14.5,30.18,North,355,2.0,3.0,45,0.00,,OVC055,0.00,VWS V14.01,2013-02-21 02:33:00,
2013-02-20 21:37:00,33.5,14.4,30.19,North,355,2.0,3.0,45,0.00,,OVC055,0.00,VWS V14.01,2013-02-21 02:37:00,
2013-02-20 21:42:00,33.3,14.8,30.19,North,355,1.0,3.0,46,0.00,,OVC055,0.00,VWS V14.01,2013-02-21 02:42:00,
2013-02-20 21:47:00,33.0,15.0,30.19,NNW,345,2.0,4.0,47,0.00,,OVC055,0.00,VWS V14.01,2013-02-21 02:47:00,
2013-02-20 21:52:00,32.9,15.4,30.19,NNW,345,1.0,4.0,48,0.00,,OVC055,0.00,VWS V14.01,2013-02-21 02:52:00,
2013-02-20 21:57:00,32.6,15.6,30.19,NNW,345,2.0,4.0,49,0.00,,OVC055,0.00,VWS V14.01,2013-02-21 02:57:00,
2013-02-20 22:00:00,32.5,15.0,30.19,NNW,338,2.0,4.0,48,0.00,,OVC055,0.00,VWS V14.01,2013-02-21 03:00:00,
2013-02-20 22:02:00,32.4,15.4,30.19,NNW,338,1.0,3.0,49,0.00,,OVC055,0.00,VWS V14.01,2013-02-21 03:02:00,
2013-02-20 22:07:00,32.1,15.6,30.19,NNW,338,2.0,3.0,50,0.00,,OVC055,0.00,VWS V14.01,2013-02-21 03:07:00,
2013-02-20 22:12:00,32.0,15.0,30.19,NNW,338,1.0,4.0,49,0.00,,OVC055,0.00,VWS V14.01,2013-02-21 03:12:00,
2013-02-20 22:17:00,31.9,14.9,30.19,North,349,1.0,4.0,49,0.00,,OVC055,0.00,VWS V14.01,2013-02-21 03:17:00,
2013-02-20 22:22:00,31.8,15.8,30.19,North,349,1.0,4.0,51,0.00,,OVC055,0.00,VWS V14.01,2013-02-21 03:22:00,
2013-02-20 22:27:00,31.6,15.6,30.19,NNW,339,1.0,4.0,51,0.00,,OVC055,0.00,VWS V14.01,2013-02-21 03:27:00,
2013-02-20 22:30:00,31.5,15.5,30.19,NNW,346,1.0,4.0,51,0.00,,OVC055,0.00,VWS V14.01,2013-02-21 03:30:00,
2013-02-20 22:32:00,31.3,15.7,30.19,NNW,341,2.0,3.0,52,0.00,,OVC055,0.00,VWS V14.01,2013-02-21 03:32:00,
2013-02-20 22:37:00,31.2,15.6,30.19,NNW,341,1.0,3.0,52,0.00,,OVC055,0.00,VWS V14.01,2013-02-21 03:37:00,
2013-02-20 22:42:00,31.0,15.4,30.19,NNW,341,0.0,3.0,52,0.00,,OVC055,0.00,VWS V14.01,2013-02-21 03:42:00,
2013-02-20 22:47:00,30.9,15.4,30.20,NNW,337,0.0,3.0,52,0.00,,OVC055,0.00,VWS V14.01,2013-02-21 03:47:00,
2013-02-20 22:52:00,30.6,15.1,30.20,NNW,337,0.0,3.0,52,0.00,,OVC055,0.00,VWS V14.01,2013-02-21 03:52:00,
2013-02-20 22:57:00,30.3,15.2,30.20,NNW,337,0.0,3.0,53,0.00,,OVC055,0.00,VWS V14.01,2013-02-21 03:57:00,
2013-02-20 23:00:00,30.2,15.1,30.20,NNW,337,0.0,3.0,53,0.00,,OVC055,0.00,VWS V14.01,2013-02-21 04:00:00,
2013-02-20 23:03:00,30.0,15.0,30.20,NNW,337,0.0,1.0,53,0.00,,OVC055,0.00,VWS V14.01,2013-02-21 04:03:00,
2013-02-20 23:08:00,29.9,14.4,30.20,NNW,337,0.0,2.0,52,0.00,,OVC055,0.00,VWS V14.01,2013-02-21 04:08:00,
2013-02-20 23:13:00,29.8,15.2,30.20,NNW,337,0.0,2.0,54,0.00,,OVC055,0.00,VWS V14.01,2013-02-21 04:13:00,
2013-02-20 23:18:00,29.7,17.5,30.20,NNW,337,0.0,2.0,60,0.00,,OVC055,0.00,VWS V14.01,2013-02-21 04:18:00,
2013-02-20 23:23:00,29.4,16.9,30.20,NNW,337,0.0,2.0,59,0.00,,OVC055,0.00,VWS V14.01,2013-02-21 04:23:00,
2013-02-20 23:28:00,29.0,16.1,30.21,NNW,337,0.0,2.0,58,0.00,,OVC055,0.00,VWS V14.01,2013-02-21 04:28:00,
2013-02-20 23:30:00,28.9,15.6,30.20,NNW,337,0.0,2.0,57,0.00,,OVC055,0.00,VWS V14.01,2013-02-21 04:30:00,
2013-02-20 23:33:00,28.7,15.8,30.20,NNW,337,0.0,0.0,58,0.00,,OVC055,0.00,VWS V14.01,2013-02-21 04:33:00,
2013-02-20 23:38:00,28.5,16.0,30.20,NNW,337,0.0,0.0,59,0.00,,OVC055,0.00,VWS V14.01,2013-02-21 04:38:00,
2013-02-20 23:42:00,28.3,18.8,30.20,NNW,337,0.0,0.0,67,0.00,,OVC055,0.00,VWS V14.01,2013-02-21 04:42:00,
2013-02-20 23:47:00,28.2,18.7,30.20,NNW,337,0.0,0.0,67,0.00,,OVC055,0.00,VWS V14.01,2013-02-21 04:47:00,
2013-02-20 23:52:00,28.0,18.8,30.20,NNW,337,0.0,0.0,68,0.00,,OVC055,0.00,VWS V14.01,2013-02-21 04:52:00,
2013-02-20 23:57:00,27.8,18.6,30.20,NNW,337,0.0,0.0,68,0.00,,OVC055,0.00,VWS V14.01,2013-02-21 04:57:00,